Showing default

QIANFAN-18, 60396

Orbit data source: Space-Track

QIANFAN-18, 60396 is a Chinese payload satellite in LEO that was launched on Tue, 06 Aug 2024 UTC via a CHANG ZHENG 6A launch vehicle from the Taiyaun Space Center, China (TSC). Payload-class satellites include a variety of spacecraft equipped with specific instruments for various scientific and technological missions. These include communications satellites like Starlink; space stations such as the ISS; scientific satellites like the Hubble; Earth observation satellites from companies like Planet Labs, Umbra, and HawkEye 360; GPS; miniature CubeSats for education and research; and military/defense satellites.

Loading next visibility...
Identifier
60396, 2024-140T
Orbit
LEO
Country
Flag of CNCN / PRC
Related business
Manufacturer
SECM
Mission
Operational Commercial Communications
Bus & Motor
QIANFAN, Unknown motor
Mass
267 kg wet, ~267 kg dry
Launch date (UTC)
2024-08-06 (1 year ago)
Launch vehicle
CHANG ZHENG 6A
Launch site
Taiyaun Space Center, China (TSC)
Object type
Payload
Rocket body
Debris
Shape & HBR
Box + 1 Pan, 5.0 m
Radar Cross Section
13.200 m², Large (>1 m²)

Expand to show TLE details & history
Last TLE update: 7 hours ago

TLE from 7 hours ago
0 QIANFAN-18
1 60396U 24140T   25350.93497379  .00000076  00000-0  98685-4 0  9994
2 60396  88.9768 298.5337 0014046 168.6613 191.4857 13.50977713 68096
Epoch: 2025-12-16T22:26Z
TLE epoch observation values (Epoch: 2025-12-16T22:26:21.735Z)
Latitude
-0.00005°
Longitude
-123.86892°
Altitude
1,081.87 km
Speed
7.306 km/s
True Right ascension
19h 54m 08s
True Declination
0° 00' 00"
Sunlit
Object was in daylight at epoch
Visualization orbit readout
Latitude
Unknown
Longitude
Unknown
Altitude
Unknown
Speed
Unknown
Apparent Right ascension
Unknown
Apparent Declination
Unknown
Sunlit
N/A
Visualization observer readout
Local Sidereal Time
03:56:50
Azimuth
Unknown
Elevation
Unknown
Doppler factor
Unknown
Orbital elements
Apogee altitude
1,076.17 km
Perigee altitude
1,055.259 km
Semi-major axis
7,443.852 km
Eccentricity
0.0014
Inclination
88.9768°
RAAN
298.5337°
Arg. of periapsis
168.6613°
True anomaly
191.45371°
Mean anomaly
191.4857°
Eccentric anomaly
191.4697°
Mean motion
3.37945 °/min
Orbital period
106.53 mins
BSTAR
0.000098685
Loading maneuver chart data...
Computing Atmospheric mass density...
Loading historical data...
Loading historical data...
Loading historical data...
Loading historical data...
Loading historical data...
Loading historical data...
Loading historical data...

Documentation

Showing up to 5 results
|